Regional Weather Roundup
Issued by NWS Wakefield, VA

Home | Current Version | Previous Version | Graphics & Text | Print | Product List | Glossary On
Versions: 1 2 3 4 5 6 7 8 9 10 11 12 13 14 15 16 17 18 19 20 21 22 23 24 25 26 27
000
ASUS41 KAKQ 211815
RWRAKQ

REGIONAL WEATHER ROUNDUP
NATIONAL WEATHER SERVICE WAKEFIELD VA
200 PM EDT SAT APR 21 2018

Note: "fair" indicates few or no clouds below 12,000 feet with no
significant weather and/or obstructions to visibility. * = Denotes
station may not report precipitation (e.g., rain,snow,etc.),
thunder or fog.

VAZ042-051-052>054-056-211900-
NORTHERN VIRGINIA

CITY           SKY/WX    TMP DP  RH WIND       PRES   REMARKS
WASH NATIONAL  PTSUNNY   59  28  30 NE7       30.40F
DULLES         PTSUNNY   57  26  30 VRB5      30.40F
FORT BELVOIR   FAIR      58  29  33 S8        30.40F
QUANTICO       FAIR      57  35  43 S7        30.42F
FREDERICKSBRG* FAIR      60  31  34 E6        30.40F
STAFFORD*      FAIR      60  28  30 N6        30.43F
WARRENTON      FAIR      58  23  26 CALM      30.39F
CULPEPER*      FAIR      58  28  31 CALM      30.41F
MANASSAS*      FAIR      59  28  30 NW7       30.40F
LEESBURG*      FAIR      59  32  36 CALM      30.40F
WINCHESTER     FAIR      54  27  35 CALM      30.40F
FRONT ROYAL*   FAIR      59  30  33 E5        30.37F
LURAY*         FAIR      59  28  31 SW5       30.37F
$$

VAZ048-049-060>072-079>083-211900-
CENTRAL AND SOUTH CENTRAL VIRGINIA

CITY           SKY/WX    TMP DP  RH WIND       PRES   REMARKS
RICHMOND       FAIR      61  29  29 N5        30.40F
CHESTERFIELD*  FAIR      61  28  28 NE7       30.40F
PETERSBURG*    FAIR      61  26  26 E6        30.41F
HANOVER        FAIR      60  28  29 VRB3      30.41F
TAPPAHANNOCK*  FAIR      59  31  35 CALM      30.41F
QUINTON*       FAIR      58  30  34 SW6       30.41F
CHARLOTTSVILLE FAIR      60  29  30 CALM      30.38F
GORDONSVILLE*  FAIR      59  30  33 CALM      30.39F
ORANGE*        FAIR      57  30  35 CALM      30.40F
LOUISA*        FAIR      60  29  30 W7        30.43F
BUMPASS*       FAIR      59  27  29 NE3       30.39F
FARMVILLE*     FAIR      62  27  26 S5        30.39F
CREWE*         FAIR      61  31  32 W3        30.39F
FORT PICKETT*  FAIR      61  31  31 N5        30.39F
CHASE CITY*    FAIR      62  29  29 W7        30.39F
CLARKSVILLE*   FAIR      61  28  29 CALM      30.39F
SOUTH HILL*    FAIR      61  31  32 W6        30.45F
LAWRENCEVILLE* FAIR      62  30  29 CALM      30.39F
EMPORIA*       FAIR      61  32  33 SW5       30.41F
$$

VAZ088>098-211900-
SOUTHEAST VIRGINIA

CITY           SKY/WX    TMP DP  RH WIND       PRES   REMARKS
NORFOLK        FAIR      54  38  54 N8        30.43F
VIRGINIA BEACH FAIR      54  37  52 NE9       30.43F
NORFOLK NAVAL  FAIR      55  33  43 NE8       30.45F
WEST POINT*    FAIR      58  27  30 CALM      30.43F
SALUDA*        FAIR      51  36  57 E8        30.43F
NEWPORT NEWS   FAIR      57  35  43 E6        30.43F
LANGLEY AFB    FAIR      55  29  37 NE8       30.43F
FORT EUSTIS    FAIR      57  37  48 S6        30.40F
WILLIAMSBURG*  FAIR      63  30  29 S3        30.42F
HR EXEC AP*    FAIR      59  35  40 VRB6      30.42F
FRANKLIN*      FAIR      61  34  36 N7        30.40F
US460-WAKEFLD  FAIR      63  33  32 N3        30.40F
$$

VAZ020-022-025-037-045-211900-
WEST CENTRAL AND SOUTHWEST VIRGINIA

CITY           SKY/WX    TMP DP  RH WIND       PRES   REMARKS
STAUNTON*      FAIR      57  29  34 SE6       30.38F
WAYNESBORO*    FAIR      59  28  30 E3        30.36F
HOT SPRINGS VA FAIR      54   9  16 W7        30.36F
LYNCHBURG      FAIR      60  26  27 VRB5      30.38F
DANVILLE       FAIR      62  29  28 VRB5      30.38F
SOUTH BOSTON*  FAIR      63  24  22 E3        30.39F
MARTINSVILLE   FAIR      63  29  28 CALM      30.40F
ROANOKE        FAIR      60  30  32 SE5       30.38F
BLACKSBURG     FAIR      60  30  31 S7        30.38F
DUBLIN*        FAIR      62  29  28 CALM      30.36F
MARION*        FAIR      62  30  29 NE5       30.36F
HILLSVILLE*    FAIR      58  27  29 S7        30.35F
RICHLANDS*     FAIR      62  26  24 CALM      30.33F
WISE*          FAIR      64  30  27 CALM      30.33F
ABINGDON*      FAIR      66  26  21 NW3       30.32F
$$

MDZ021>025-VAZ099-100-211900-
SOUTHERN MARYLAND AND THE DELMARVA PENINSULA

CITY           SKY/WX    TMP DP  RH WIND       PRES   REMARKS
PATUXENT RIVER FAIR      55  31  39 E8        30.42F
BAY BRIDGE APT FAIR      57  34  41 SE7       30.41F
LEONARDTOWN    FAIR      55  32  41 S6        30.42F
DOVER          PTSUNNY   56  28  34 NW6       30.39F
GEORGETOWN     FAIR      58  26  29 W9        30.40F
EASTON         NOT AVBL
CAMBRIDGE      SUNNY     54  28  37 NW8       30.42F
SALISBURY      FAIR      56  29  35 N5        30.40F
TANGIER        FAIR      52  30  43 W5        30.44F
OCEAN CITY     FAIR      50  31  48 SE9       30.43F
WALLOPS ISLAND FAIR      53  35  50 S12       30.43F
ACCOMACK*      FAIR      54  32  43 W9        30.43F
$$

NCZ012>017-030>032-211900-
NORTH CENTRAL AND EASTERN NORTH CAROLINA

CITY           SKY/WX    TMP DP  RH WIND       PRES   REMARKS
ROANOKE RAPIDS FAIR      63  32  31 CALM      30.39F
RALEIGH        FAIR      66  38  35 SW13      30.39F
ELIZABETH CITY FAIR      58  44  60 SE12      30.42F
AHOSKIE*       FAIR      61  32  33 NE6       30.40F
EDENTON*       FAIR      62  41  46 SE8       30.42F
CURRITUCK*     NOT AVBL
KILL DEVIL HLS FAIR      52  39  61 NE7       30.43F
MANTEO         FAIR      54  40  58 E10       30.44F
CAPE HATTERAS  FAIR      59  38  45 VRB7      30.43F
TARBORO*       NOT AVBL
GOLDSBORO      FAIR      67  37  33 NW6       30.38F
WASHINGTON     FAIR      66  33  28 CALM      30.39F
GREENVILLE     FAIR      64  34  32 E7        30.40S
NEW BERN       FAIR      64  36  35 E7        30.40F
WILMINGTON     FAIR      66  29  24 E10       30.39F
$$

VAZ048-211900-
ELSEWHERE

CITY           SKY/WX    TMP DP  RH WIND       PRES   REMARKS
HARRISBURG PA  PTSUNNY   55  27  34 W7        30.39F
BALTIMORE      PTSUNNY   58  25  28 MISG      30.39F
ANNAPOLIS      FAIR      54  37  52 SE9       30.41F
ANDREWS AFB    FAIR      57  27  32 NW5       30.39F
PHILADELPHIA   PTSUNNY   56  24  29 W7        30.38F
HENDERSON NC   FAIR      61  28  28 CALM      30.39F
GREENSBORO     FAIR      64  30  27 VRB6      30.36F
ROCKY MOUNT    FAIR      64  33  31 VRB5      30.40F
$$

VAZ100-211900-
MARINE

STATION/POSITION TIME  TEMP    WIND        PRES    WAVE   SWELL
                       AIR SEA DIR/SP/G            HT/PER HT/PER
                 (UTC) (F)     (DEG/KT/KT) (MB)    (FT/S) (FT/S)
BRANDYWINE LGT   1742   49     330/  5/  7 1029.9F
CAPE MAY NJ      1748   51 49  290/  9/ 11 1028.9F
LEWES DE         1748   48 50   30/  5/  7 1029.6F
15NM E FENWICK I 1750   45 47  340/  4/  4 1030.5F   2/ 5   2/ 5
OCEAN-CITY-INLET 1748   49 49  140/  6/  9 1030.7F
WACHAPREAGUE VA  1748   48 54  160/  6/  9 1030.7F
THOMAS POINT MD  1800   48 51  140/  7/  7 1030.6F
GOOSES REEF MD   1800   49     160/  6/  6 1030.7
COVE POINT MD    1748   48     160/  4/  6 1031.0F
SOLOMONS ISLAND  1748   49 53   90/  8/  9 1029.8F
BISHOPS HEAD MD  1748   49 56  240/  7/  9 1030.8F
PINEY POINT MD   1748          160/  9/  9   N/A
POTOMAC MD       1800   48 54   80/  4/  6 1031.9    0
CAMBRIDGE MD     1748   55 55              1031.0F
LEWISETTA VA     1748   49 53   70/  6/  8 1030.4F
RAPPAHANNOCK LGT 1748          360/  5/  7 1031.6F
YORK RVR RNG VA  1748   49      90/  9/ 11 1031.4F
YORKTOWN VA      1748   50 56   90/ 11/ 12 1030.4F
DOMINION TERM VA 1748   52     100/  5/ 10 1030.9F
KIPTOPEKE VA     1748      54  320/  8/  9   N/A
CAPE HENRY VA    1748   48      50/  6/  7   N/A
WILLOUBY STN VA  1748   49      80/  6/  7 1030.8F
S CRANEY ISL VA  1748   52      20/  6/  9 1030.5F
CAPE HENRY BUOY  1800      51                N/A     2/ 5
64NM E OF VA BCH 1750   46 49   10/ 10/ 12 1031.2F   2/ 5   2/ 5
DUCK PIER NC     1748   48 52   50/  9/ 10 1030.3F
44100 DUCK FRF   1745      51                N/A     2/ 4
44056 DUCK FRF   1800      53                N/A     2/14
OREGON INLET NC  1736   50 55   20/  9/ 12 1030.6F
HATTERAS NC      1748   54      70/  7/ 12 1030.2
DIAMOND SHLS NC  1800   55 71   20/ 14/ 19 1030.3
CAPE LOOKOUT NC  1800           60/ 14/ 16 1030.1F
$$




USA.gov is the U.S. government's official web portal to all federal, state and local government web resources and services.